Regional Weather Roundup
Issued by NWS

Home | Current Version | Previous Version | Text Only | Print | Product List | Glossary On
Versions: 1 2 3 4 5 6 7 8 9 10 11 12 13 14 15 16 17 18 19 20 21 22 23 24 25 26 27
000
ASUS45 KREV 240010
RWRNV
NEVADA REGIONAL WEATHER ROUNDUP
NATIONAL WEATHER SERVICE RENO NV
500 PM PDT SAT SEP 23 2017

NOTE: "FAIR" INDICATES FEW OR NO CLOUDS BELOW 12,000 FEET WITH NO
SIGNIFICANT WEATHER AND/OR OBSTRUCTIONS TO VISIBILITY.

NVZ001-003-004-240100-
WESTERN NEVADA

CITY           SKY/WX    TMP DP  RH WIND       PRES   REMARKS
RENO           MOSUNNY   59  21  23 S6        30.02F
6HR MIN TEMP:  51; 6HR MAX TEMP:  60;

CARSON CITY    FAIR      57  18  21 NE9G17    30.03S
MINDEN         FAIR      55  18  22 MISG      30.01F
SLIDE MTN        N/A     32  25  74 E9          N/A
FALLON         MOSUNNY   60  19  20 NE9       30.02S
6HR MIN TEMP:  50; 6HR MAX TEMP:  60;

LOVELOCK       MOSUNNY   57  21  24 E8        30.01F
6HR MIN TEMP:  52; 6HR MAX TEMP:  61;

HAWTHORNE      SUNNY     57  23  26 NW14      30.01S
$$

NVZ002-CAZ072-073-240100-
NORTHERN AND CENTRAL SIERRA

CITY           SKY/WX    TMP DP  RH WIND       PRES   REMARKS
S. LAKE TAHOE  SUNNY     50  21  32 VRB7      30.03S
6HR MIN TEMP:  44; 6HR MAX TEMP:  52;

TRUCKEE        MOSUNNY   52  21  30 N3        30.04S
SQUAW VLY 8000   N/A     37  25  60 SE5         N/A
SUSANVILLE     SUNNY     61  23  23 SE5       30.03S
BLUE CANYON    SUNNY     57  25  29 VRB6      30.01F
MAMMOTH LAKES  FAIR      53  18  25 N9        30.02R
6HR MIN TEMP:  44; 6HR MAX TEMP:  55;

BRIDGEPORT     FAIR      49  21  33 NE9       30.01R
$$

NVZ030-031-036-240100-
NORTHERN NEVADA

CITY           SKY/WX    TMP DP  RH WIND       PRES   REMARKS
ELKO           CLOUDY    51  24  34 N13G18    30.01R
6HR MIN TEMP:  37; 6HR MAX TEMP:  54;

WINNEMUCCA     PTSUNNY   56  23  27 N3        30.03S
6HR MIN TEMP:  52; 6HR MAX TEMP:  59;

WENDOVER       CLOUDY    53  30  41 N14       29.97S
$$

NVZ035-037-240100-
CENTRAL NEVADA

CITY           SKY/WX    TMP DP  RH WIND       PRES   REMARKS
ELY            PTSUNNY   44  29  55 NW16      29.98R
6HR MIN TEMP:  40; 6HR MAX TEMP:  46;

EUREKA           N/A     49  26  41 N17G25    30.01R
6HR MIN TEMP:  40; 6HR MAX TEMP:  50;

$$

NVZ013-014-240100-
SOUTH CENTRAL NEVADA

CITY           SKY/WX    TMP DP  RH WIND       PRES   REMARKS
TONOPAH        PTSUNNY   55  33  43 N14       29.97S
6HR MIN TEMP:  50; 6HR MAX TEMP:  58;

$$

NVZ017-020-022-240100-
SOUTHERN NEVADA

CITY           SKY/WX    TMP DP  RH WIND       PRES   REMARKS
LAS VEGAS      MOSUNNY   73  20  13 N9        29.81S
6HR MIN TEMP:  69; 6HR MAX TEMP:  75;

N. LAS VEGAS   SUNNY     73  16  11 N16G26    29.80S
6HR MIN TEMP:  69; 6HR MAX TEMP:  74;

NELLIS AFB     MOSUNNY   75  17  11 NW18G26   29.79R
6HR MIN TEMP:  68; 6HR MAX TEMP:  76;

HENDERSON      MOSUNNY   72  21  14 NW8       29.84S
6HR MIN TEMP:  67; 6HR MAX TEMP:  73;

MERCURY        PTSUNNY   69  20  15 N13G23    29.86S
6HR MIN TEMP:  62; 6HR MAX TEMP:  71;

$$




USA.gov is the U.S. government's official web portal to all federal, state and local government web resources and services.